Regional Weather Roundup
Issued by NWS

Home | Current Version | Previous Version | Graphics & Text | Print | Product List | Glossary On
Versions: 1 2 3 4 5 6 7 8 9 10 11 12 13 14 15 16 17 18 19 20 21 22 23 24 25 26 27 28 29 30 31 32 33 34 35 36 37 38 39 40 41 42 43 44 45 46 47 48 49 50
000
ASUS43 KOAX 201810
RWRNE

WEATHER ROUNDUP FOR NEBRASKA
NATIONAL WEATHER SERVICE OMAHA NE
1200 PM CST FRI JAN 20 2017

NOTES: SATELLITE DATA IS BEING USED TO AUGMENT CLOUD COVER ABOVE
       12000 FEET.
       "FAIR" INDICATES FEW OR NO CLOUDS BELOW 12,000 FEET WITH NO
       SIGNIFICANT WEATHER AND/OR OBSTRUCTIONS TO VISIBILITY.

  * THESE STATIONS DO NOT REPORT WEATHER SUCH AS RAIN...SNOW OR FOG.

NEZ001>004-019>022-054>056-201900-
NEBRASKA PANHANDLE

CITY           SKY/WX    TMP DP  RH WIND       PRES   REMARKS
SCOTTSBLUFF    CLOUDY    38  27  64 W10       29.41F WCI  31
6HR MIN TEMP:  25; 6HR MAX TEMP:  38;

ALLIANCE       MOSUNNY   39  29  67 W14       29.38F WCI  31
6HR MIN TEMP:  18; 6HR MAX TEMP:  39;

CHADRON        CLOUDY    35  28  75 W7        29.40F WCI  29
6HR MIN TEMP:  23; 6HR MAX TEMP:  35;

KIMBALL        CLOUDY    39  32  75 W15       29.42F WCI  31
SIDNEY         PTSUNNY   40  31  70 NW13      29.42F WCI  32
6HR MIN TEMP:  26; 6HR MAX TEMP:  40;

$$

NEZ057>060-069>072-079>082-201900-
SOUTHWEST NEBRASKA

CITY           SKY/WX    TMP DP  RH WIND       PRES   REMARKS
NORTH PLATTE   CLOUDY    37  34  89 W7        29.44F WCI  32
6HR MIN TEMP:  34; 6HR MAX TEMP:  37;

IMPERIAL       CLOUDY    30  28  92 W3        29.42F
6HR MIN TEMP:  28; 6HR MAX TEMP:  30;

LEXINGTON      CLOUDY    40  38  95 S6        29.44F FOG
MCCOOK         CLOUDY    36  35  96 W9        29.44F WCI  29
6HR MIN TEMP:  33; 6HR MAX TEMP:  36;

OGALLALA       PTSUNNY   33  33  96 W6        29.41F WCI  28
$$

NEZ005>010-023>029-035>040-094-201900-
NORTH CENTRAL NEBRASKA

CITY           SKY/WX    TMP DP  RH WIND       PRES   REMARKS
VALENTINE      SUNNY     39  28  64 SW10      29.37F WCI  32
6HR MIN TEMP:  19; 6HR MAX TEMP:  40;

AINSWORTH      SUNNY     37  32  83 SW10      29.38F WCI  30
BROKEN BOW     CLOUDY    39  37  92 SW5       29.43F
6HR MIN TEMP:  32; 6HR MAX TEMP:  39;

O`NEILL        SUNNY     46  38  74 SW14G21   29.41F
ORD            CLOUDY    40  37  89 SW6       29.44F
6HR MIN TEMP:  30; 6HR MAX TEMP:  40;

THEDFORD       CLOUDY    35  34  97 S15       29.42F FOG     WCI  25
$$

NEZ041-046>049-061>064-073>077-083>087-201900-
SOUTH CENTRAL NEBRASKA

CITY           SKY/WX    TMP DP  RH WIND       PRES   REMARKS
GRAND ISLAND   CLOUDY    39  39 100 S5        29.47F
6HR MIN TEMP:  36; 6HR MAX TEMP:  39;

AURORA         CLOUDY    40  40 100 SE5       29.47F FOG
HASTINGS       CLOUDY    40  39  97 S6        29.46F FOG
6HR MIN TEMP:  37; 6HR MAX TEMP:  40;

HEBRON         CLOUDY    42  42 100 SE6       29.47F FOG
HOLDREGE       CLOUDY    40  39  97 S5        29.44F FOG
KEARNEY *      CLOUDY    39  37  93 SE5       29.45F VSB 1/4
YORK           CLOUDY    41  41 100 SE6       29.48F FOG
$$

NEZ011>018-030>034-042>045-201900-
NORTHEAST NEBRASKA

CITY           SKY/WX    TMP DP  RH WIND       PRES   REMARKS
NORFOLK        CLOUDY    40  39  97 S10       29.47F WCI  33
6HR MIN TEMP:  37; 6HR MAX TEMP:  40;

ALBION         CLOUDY   N/A N/A N/A S10       29.46F FOG
BLAIR          CLOUDY    42  42  98 SE7       29.51F FOG
FREMONT        FOG       41  41 100 SE5       29.51F VSB 3/4
TEKAMAH        CLOUDY    42  40  92 SE7       29.52F FOG
6HR MIN TEMP:  35; 6HR MAX TEMP:  42;

WAYNE          CLOUDY    41  40  98 S10       29.48F
$$

NEZ050>053-065>068-078-088>093-201900-
SOUTHEAST NEBRASKA

CITY           SKY/WX    TMP DP  RH WIND       PRES   REMARKS
LINCOLN        CLOUDY    42  41  96 E7        29.52F
6HR MIN TEMP:  38; 6HR MAX TEMP:  42; 6HR PCP: TRACE;

OMAHA EPPLEY   CLOUDY    43  39  86 SE6       29.52F
6HR MIN TEMP:  39; 6HR MAX TEMP:  43; 6HR PCP: TRACE;

BEATRICE       CLOUDY    43  43 100 E3        29.50F FOG
FALLS CITY     FOG       44  43  96 E5        29.52F VSB 1/4
6HR MIN TEMP:  39; 6HR MAX TEMP:  44;

NEBRASKA CITY  CLOUDY    42  42 100 SE3       29.52F FOG
PLATTSMOUTH    CLOUDY    41  40  93 SE5       29.52F FOG
$$

NEZ044-045-051>053-067-201900-
OMAHA AREA

CITY           SKY/WX    TMP DP  RH WIND       PRES   REMARKS
OMAHA EPPLEY   CLOUDY    43  39  86 SE6       29.52F
6HR MIN TEMP:  39; 6HR MAX TEMP:  43; 6HR PCP: TRACE;

BLAIR          CLOUDY    42  42  98 SE7       29.51F FOG
FREMONT        FOG       41  41 100 SE5       29.51F VSB 3/4
MILLARD        CLOUDY    44  43  96 SE6       29.53F
OFFUTT AFB     CLOUDY    41  41 100 SE5       29.52F
PLATTSMOUTH    CLOUDY    41  40  93 SE5       29.52F FOG
WAHOO          FOG       40  39  97 SE5       29.51F VSB 1/4
$$




USA.gov is the U.S. government's official web portal to all federal, state and local government web resources and services.